sat.trackr.live / text

‹ back to catalog

STARLINK-34678

NORAD 65443 · 2025-194K

PAYLOAD ACTIVE UNKNOWN

§ Identity

Operator
Country
US
Launch date
2025-09-03
Launch site
AFWTR
Launch vehicle
Mass (kg)
RCS (m²)

Purposes: comms

External: N2YO · Heavens-Above · Gunter

§ Orbital elements

Epoch: 2026-05-25T02:30:28.558080Z

Period
95.64 min
Inclination
97.4516°
Eccentricity
0.0002234
Mean motion
15.05656995 rev/d
Perigee alt
547.9 km
Apogee alt
551.0 km
Semi-major
6,927.6 km
B*
2.0378e-4
RAAN
359.2999°
Arg perigee
82.7769°
Mean anomaly
277.3712°
Rev number
4,114

§ Raw data

STARLINK-346781 65443U 25194K   26145.10449720  .00002883  00000+0  20378-3 0  99912 65443  97.4516 359.2999 0002234  82.7769 277.3712 15.05656995 41142

JSON: /api/v1/satellites/65443 · /tle

For live sub-satellite position, see the globe view (requires WebGL).

§ Visibility from observer

Set your observer location to see the next 7 days of passes ≥ 10°. The values pass through the URL so the page stays shareable.

No JS? Fill the form by hand. The geolocation button needs JavaScript.